Location: Claremont
(33.9858°S, 18.4575°E)
Time: 05:00:01
(UTC+00:00)

ISS - Visible Passes

Search period start: 09 December 2022 00:00
Search period end: 19 December 2022 00:00
Orbit: 414 x 420 km, 51.6° (Epoch: 08 December)

Date Brightness Start Highest point End Pass type
(mag) Time Alt. Az. Time Alt. Az. Time Alt. Az.
10 Dec -1.5 02:56:04 10° SSW 02:59:10 31° SE 03:02:15 10° ENE visible
10 Dec -3.9 19:35:40 10° NW 19:39:02 82° NE 19:42:28 10° SE visible
10 Dec -0.3 21:14:31 10° WSW 21:16:12 13° SSW 21:17:53 10° S visible
11 Dec -0.7 02:08:12 10° SSW 02:10:48 20° SSE 02:13:22 10° E visible
11 Dec -3.3 18:47:40 10° NNW 18:50:51 40° NE 18:54:04 10° ESE visible
11 Dec -0.9 20:25:12 10° W 20:27:43 19° SSW 20:30:17 10° SSE visible
12 Dec -0.3 01:20:36 10° S 01:22:20 13° SSE 01:24:04 10° ESE visible
12 Dec -3.8 02:56:03 10° SW 02:59:29 81° NW 03:02:52 10° NE visible
12 Dec -1.7 19:36:17 10° W 19:39:19 30° SW 19:42:25 10° SSE visible
13 Dec -2.8 02:07:49 10° SW 02:11:12 52° SE 02:14:31 10° ENE visible
13 Dec -2.9 18:47:39 10° WNW 18:50:58 54° SW 18:54:20 10° SE visible
14 Dec -1.6 01:19:46 10° SSW 01:22:49 29° SE 01:25:52 10° E visible
14 Dec -2.5 02:56:43 10° WSW 02:59:27 22° NW 03:02:10 10° N visible
14 Dec -0.3 19:37:59 10° WSW 19:39:47 14° SSW 19:41:35 10° S visible
15 Dec -0.8 00:31:52 10° SSW 00:34:22 19° SSE 00:36:52 10° E visible
15 Dec -3.4 02:08:00 10° WSW 02:11:16 43° NW 02:14:30 10° NNE visible
15 Dec -0.7 18:48:39 10° W 18:51:15 20° SSW 18:53:53 10° SSE visible
15 Dec -0.4 23:44:14 10° S 23:45:49 13° SSE 23:47:10 11° SE visible
16 Dec -1.0 01:19:34 10° SW 01:19:43 11° SW 01:19:43 11° SW visible
